Skip Page Navigation
NASA JPL Caltech
NASA Logo - Jet Propulsion Laboratory + View the NASA Portal
+ Center for Near-Earth Object Studies
JPL Home Earth Solar System Stars & Galaxies Technology
JPL Solar System Dynamics
BODIES ORBITS EPHEMERIDES TOOLS PHYSICAL DATA DISCOVERY FAQ SITE MAP
JPL Small-Body Database Browser
Search: [ help ]  
118514 (2000 DJ104)
Classification: Main-belt Asteroid          SPK-ID: 2118514
Ephemeris | Orbit Diagram | Orbital Elements | Mission Design | Physical Parameters | Discovery Circumstances | Close-Approach Data ]

[ show orbit diagram ]
Orbital Elements at Epoch 2459200.5 (2020-Dec-17.0) TDB
Reference: JPL 28 (heliocentric ecliptic J2000)
 Element Value Uncertainty (1-sigma)   Units 
e .1300828331474184 4.0602e-08  
a 2.291761703997459 1.2737e-08 au
q 1.993642848642714 9.2694e-08 au
i 5.929865937768684 4.4667e-06 deg
node 109.522514349986 5.7131e-05 deg
peri 165.832706053633 6.3301e-05 deg
M 260.4800639529657 3.0559e-05 deg
tp 2459550.816183902216
(2021-Dec-02.31618390)
0.0001087 TDB
period 1267.221736810551
3.47
1.0564e-05
2.892e-08
d
yr
n .2840860360445505 2.3683e-09 deg/d
Q 2.589880559352204 1.4394e-08 au
  Orbit Determination Parameters
   # obs. used (total)      533  
   data-arc span      8608 days (23.57 yr)  
   first obs. used      1997-06-30  
   last obs. used      2021-01-23  
   planetary ephem.      DE431  
   SB-pert. ephem.      SB431-N16  
   condition code      0  
   norm. resid. RMS      .59307  
   source      ORB  
   producer      Otto Matic  
   solution date      2021-Feb-24 19:36:58  

Additional Information
 Earth MOID = .975974 au 
 Jupiter MOID = 2.51215 au 
 T_jup = 3.579 
[ show covariance matrix ]

Ephemeris | Orbit Diagram | Orbital Elements | Mission Design | Physical Parameters | Discovery Circumstances | Close-Approach Data ]

Physical Parameter Table
Parameter Symbol Value Units Sigma Reference Notes
absolute magnitude H 16.18   n/a E2021B55  

118514 (2000 DJ104)          Discovered 2000-Feb-29 by LINEAR at Socorro
Reference: 20051116/Numbers.arcLast Updated: 2005-11-21

[ show close-approach data ]
Alternate Designations
 2000 DJ104 = 1997 MO2 
Ephemeris | Orbit Diagram | Orbital Elements | Mission Design | Physical Parameters | Discovery Circumstances | Close-Approach Data ]
ABOUT SSD CREDITS/AWARDS PRIVACY/COPYRIGHT GLOSSARY LINKS
FirstGov 2021-Apr-11 05:47 UT
(server date/time)  
NASA Home Page
Site Manager:   Ryan S. Park
Webmaster  Alan B. Chamberlin